Location: Unspecified
(43.8044°N, 11.0278°E)
Time: 19:11:48
(UTC+01:00)

CZ-3 Stage 3 - Visible Passes

Search period start: 28 January 2015 00:00
Search period end: 07 February 2015 00:00
Orbit: 436 x 34794 km, 31.1° (Epoch: 25 January)

Date Brightness Start Highest point End Pass type
(mag) Time Alt. Az. Time Alt. Az. Time Alt. Az.
28 Jan 7.7 12:50:11 10° SE 19:19:25 67° SSE 21:12:08 50° ESE visible
29 Jan 8.5 20:49:53 10° WSW 04:02:09 - WNW 04:02:09 - WNW visible
30 Jan 7.8 15:57:47 10° SSW 00:35:38 54° WSW 00:35:38 54° WSW visible
31 Jan 7.7 12:41:01 10° SE 19:22:16 68° SSE 21:09:10 48° ESE visible
02 Feb 7.7 15:52:29 10° SSW 00:32:33 53° WSW 00:32:33 53° WSW visible
03 Feb 7.6 12:32:19 10° SE 19:24:18 69° SSE 21:06:02 47° ESE visible
05 Feb 7.6 15:47:12 10° SSW 00:29:22 53° WSW 00:29:22 53° WSW visible
06 Feb 7.5 12:24:04 10° SE 19:25:38 70° SSE 21:02:48 45° ESE visible
